�������l�o���
Date,Time,MP-1(��Sv/h),MP-2(��Sv/h),MP-3(��Sv/h),MP-4(��Sv/h),MP-5(��Sv/h),MP-6(��Sv/h),MP-7(��Sv/h),MP-8(��Sv/h),����,����(m/s),���J
2018/04/27,00:00,0.845,1.377,0.870,1.610,1.101,0.477,0.839,0.802,��쓌,3.9,��
2018/04/27,00:10,0.844,1.377,0.872,1.607,1.104,0.479,0.839,0.802,��,3.9,��
2018/04/27,00:20,0.843,1.375,0.871,1.608,1.104,0.475,0.838,0.805,��쐼,4.6,��
2018/04/27,00:30,0.844,1.378,0.869,1.607,1.105,0.477,0.838,0.804,��쐼,6.6,��
2018/04/27,00:40,0.843,1.377,0.869,1.610,1.104,0.475,0.838,0.804,��쐼,5.9,��
2018/04/27,00:50,0.843,1.377,0.870,1.605,1.103,0.477,0.838,0.803,��쐼,5.2,��
2018/04/27,01:00,0.842,1.376,0.870,1.607,1.102,0.477,0.838,0.802,��쐼,5.3,��
2018/04/27,01:10,0.842,1.381,0.871,1.605,1.102,0.474,0.836,0.804,�쐼,4.7,��
2018/04/27,01:20,0.843,1.377,0.870,1.606,1.102,0.477,0.839,0.801,��,4.1,��
2018/04/27,01:30,0.844,1.376,0.872,1.605,1.099,0.478,0.838,0.802,��쐼,4.2,��
2018/04/27,01:40,0.842,1.377,0.869,1.610,1.104,0.476,0.838,0.804,��쐼,3.8,��
2018/04/27,01:50,0.843,1.375,0.870,1.607,1.104,0.476,0.838,0.804,��쐼,4.6,��
2018/04/27,02:00,0.842,1.373,0.868,1.607,1.103,0.477,0.839,0.803,�쐼,4.2,��
2018/04/27,02:10,0.843,1.374,0.869,1.609,1.106,0.477,0.841,0.804,��쐼,4.1,��
2018/04/27,02:20,0.845,1.378,0.870,1.606,1.104,0.476,0.838,0.802,��쐼,3.4,��
2018/04/27,02:30,0.844,1.376,0.872,1.607,1.103,0.478,0.840,0.804,��,3.8,��
2018/04/27,02:40,0.843,1.378,0.871,1.607,1.104,0.477,0.838,0.805,��쐼,3.9,��
2018/04/27,02:50,0.844,1.377,0.871,1.607,1.106,0.475,0.837,0.803,�쐼,4.4,��
2018/04/27,03:00,0.842,1.378,0.870,1.607,1.104,0.477,0.840,0.804,��쐼,4.5,��
2018/04/27,03:10,0.842,1.379,0.868,1.611,1.105,0.478,0.839,0.803,��쐼,4.9,��
2018/04/27,03:20,0.842,1.378,0.870,1.607,1.101,0.476,0.838,0.803,��,4.4,��
2018/04/27,03:30,0.843,1.378,0.870,1.607,1.103,0.477,0.839,0.804,��,3.0,��
2018/04/27,03:40,0.844,1.377,0.870,1.610,1.105,0.477,0.839,0.803,��쐼,3.4,��
2018/04/27,03:50,0.843,1.377,0.869,1.609,1.103,0.478,0.839,0.803,�쐼,4.8,��
2018/04/27,04:00,0.842,1.378,0.870,1.607,1.104,0.477,0.839,0.805,�쐼,3.7,��
2018/04/27,04:10,0.842,1.379,0.869,1.608,1.104,0.476,0.839,0.804,�쐼,4.4,��
2018/04/27,04:20,0.844,1.377,0.869,1.604,1.103,0.476,0.839,0.803,�쐼,5.0,��
2018/04/27,04:30,0.842,1.377,0.870,1.607,1.103,0.477,0.839,0.804,��,4.5,��
2018/04/27,04:40,0.842,1.376,0.872,1.606,1.103,0.475,0.839,0.804,��쐼,5.2,��
2018/04/27,04:50,0.842,1.380,0.871,1.606,1.104,0.478,0.841,0.804,�쐼,4.4,��
2018/04/27,05:00,0.844,1.375,0.873,1.607,1.106,0.476,0.839,0.805,��쐼,4.4,��
2018/04/27,05:10,0.843,1.375,0.869,1.608,1.103,0.478,0.839,0.805,��쐼,3.8,��
2018/04/27,05:20,0.843,1.375,0.871,1.609,1.103,0.476,0.841,0.804,�쐼,4.6,��
2018/04/27,05:30,0.842,1.374,0.870,1.609,1.105,0.477,0.840,0.805,��쐼,5.1,��
2018/04/27,05:40,0.843,1.377,0.873,1.609,1.106,0.478,0.839,0.805,�쐼,5.6,��
2018/04/27,05:50,0.844,1.377,0.870,1.606,1.105,0.477,0.841,0.802,�쐼,5.8,��
2018/04/27,06:00,0.844,1.379,0.872,1.609,1.107,0.478,0.840,0.804,�쐼,5.8,��
2018/04/27,06:10,0.844,1.378,0.874,1.608,1.108,0.476,0.840,0.804,��쐼,7.2,��
2018/04/27,06:20,0.844,1.380,0.874,1.609,1.108,0.480,0.841,0.805,�쐼,7.1,��
2018/04/27,06:30,0.846,1.381,0.874,1.610,1.107,0.477,0.840,0.804,��쐼,7.1,��
2018/04/27,06:40,0.847,1.382,0.872,1.610,1.105,0.477,0.841,0.806,��쐼,7.7,��
2018/04/27,06:50,0.846,1.380,0.873,1.609,1.107,0.477,0.842,0.804,��쐼,7.9,��
2018/04/27,07:00,0.846,1.381,0.873,1.611,1.107,0.477,0.843,0.804,��쐼,7.1,��
2018/04/27,07:10,0.845,1.381,0.875,1.611,1.107,0.480,0.840,0.805,��쐼,5.6,��
2018/04/27,07:20,0.845,1.380,0.878,1.612,1.109,0.476,0.843,0.805,��,3.5,��
2018/04/27,07:30,0.845,1.380,0.875,1.612,1.109,0.477,0.843,0.806,��쓌,3.6,��
2018/04/27,07:40,0.845,1.376,0.877,1.611,1.108,0.479,0.842,0.805,��,3.8,��
2018/04/27,07:50,0.846,1.380,0.876,1.611,1.106,0.477,0.843,0.807,��,4.8,��
2018/04/27,08:00,0.846,1.381,0.876,1.612,1.105,0.475,0.842,0.806,��,4.8,��
2018/04/27,08:10,0.848,1.381,0.876,1.613,1.109,0.475,0.842,0.803,��,6.5,��
2018/04/27,08:20,0.847,1.378,0.875,1.612,1.105,0.475,0.842,0.803,��쐼,6.7,��
2018/04/27,08:30,0.849,1.380,0.873,1.613,1.107,0.475,0.839,0.803,��쐼,6.2,��
2018/04/27,08:40,0.846,1.381,0.875,1.616,1.108,0.477,0.840,0.804,�쐼,6.2,��
2018/04/27,08:50,0.848,1.381,0.874,1.615,1.106,0.476,0.842,0.803,��쐼,8.1,��
2018/04/27,09:00,0.849,1.381,0.877,1.617,1.108,0.475,0.843,0.803,��쐼,9.3,��
2018/04/27,09:10,0.848,1.382,0.876,1.615,1.110,0.475,0.843,0.803,��쐼,7.5,��
2018/04/27,09:20,0.849,1.381,0.875,1.617,1.109,0.476,0.841,0.804,��쐼,7.1,��
2018/04/27,09:30,0.848,1.383,0.875,1.615,1.108,0.476,0.842,0.804,��쐼,7.6,��
2018/04/27,09:40,0.848,1.385,0.875,1.618,1.109,0.479,0.840,0.802,��,5.5,��
2018/04/27,09:50,0.848,1.382,0.873,1.616,1.111,0.476,0.840,0.804,��,6.2,��
2018/04/27,10:00,0.851,1.383,0.875,1.618,1.109,0.476,0.841,0.805,��,5.3,��
2018/04/27,10:10,0.848,1.385,0.876,1.614,1.111,0.478,0.840,0.805,��,4.7,��
2018/04/27,10:20,0.849,1.382,0.877,1.617,1.112,0.477,0.843,0.803,��,6.1,��
2018/04/27,10:30,0.850,1.386,0.875,1.615,1.111,0.477,0.843,0.804,��,5.8,��
2018/04/27,10:40,0.850,1.385,0.877,1.617,1.113,0.477,0.842,0.803,��,7.1,��
2018/04/27,10:50,0.851,1.386,0.877,1.616,1.112,0.478,0.844,0.802,��,6.7,��
2018/04/27,11:00,0.853,1.386,0.877,1.618,1.113,0.479,0.842,0.805,��,6.5,��
2018/04/27,11:10,0.850,1.389,0.878,1.617,1.113,0.479,0.843,0.803,��,6.4,��
2018/04/27,11:20,0.850,1.385,0.878,1.614,1.117,0.479,0.843,0.803,��,6.8,��
2018/04/27,11:30,0.850,1.386,0.878,1.615,1.114,0.479,0.843,0.804,��,5.6,��
2018/04/27,11:40,0.850,1.387,0.877,1.613,1.114,0.478,0.843,0.806,��쓌,5.8,��
2018/04/27,11:50,0.851,1.387,0.876,1.615,1.116,0.481,0.844,0.805,��쓌,8.3,��
2018/04/27,12:00,0.852,1.389,0.878,1.615,1.115,0.478,0.845,0.805,��쓌,8.2,��
2018/04/27,12:10,0.852,1.388,0.878,1.615,1.117,0.479,0.844,0.804,��,10.8,��
2018/04/27,12:20,0.850,1.389,0.877,1.619,1.114,0.479,0.842,0.804,��,9.4,��
2018/04/27,12:30,0.850,1.387,0.876,1.616,1.116,0.480,0.843,0.804,��쓌,9.8,��
2018/04/27,12:40,0.850,1.390,0.878,1.618,1.114,0.479,0.843,0.804,��,8.8,��
2018/04/27,12:50,0.850,1.391,0.879,1.617,1.113,0.479,0.842,0.804,��쓌,10.2,��
2018/04/27,13:00,0.850,1.392,0.879,1.618,1.115,0.479,0.841,0.804,��,9.2,��
2018/04/27,13:10,0.850,1.391,0.877,1.619,1.115,0.480,0.843,0.805,��쓌,9.3,��
2018/04/27,13:20,0.851,1.395,0.879,1.619,1.114,0.480,0.842,0.807,��,8.3,��
2018/04/27,13:30,0.851,1.394,0.878,1.622,1.119,0.479,0.841,0.804,��,9.6,��
2018/04/27,13:40,0.850,1.393,0.878,1.619,1.118,0.480,0.843,0.804,��,9.1,��
2018/04/27,13:50,0.852,1.394,0.877,1.622,1.116,0.479,0.843,0.805,��,8.6,��
2018/04/27,14:00,0.851,1.393,0.877,1.619,1.118,0.478,0.842,0.803,��,9.3,��
2018/04/27,14:10,0.851,1.392,0.879,1.620,1.116,0.479,0.840,0.803,��,9.2,��
2018/04/27,14:20,0.845,1.393,0.879,1.623,1.116,0.481,0.843,0.804,��쓌,10.0,��
2018/04/27,14:30,0.843,1.394,0.879,1.623,1.115,0.479,0.842,0.803,��,10.5,��
2018/04/27,14:40,0.841,1.392,0.877,1.622,1.117,0.479,0.845,0.804,��,10.0,��
2018/04/27,14:50,0.848,1.393,0.876,1.620,1.117,0.479,0.844,0.803,��,9.0,��
2018/04/27,15:00,0.851,1.394,0.878,1.621,1.117,0.479,0.842,0.805,��,8.2,��
2018/04/27,15:10,0.850,1.394,0.878,1.624,1.118,0.482,0.843,0.804,��,9.0,��
2018/04/27,15:20,0.849,1.394,0.879,1.624,1.119,0.480,0.843,0.805,��,10.6,��
2018/04/27,15:30,0.851,1.395,0.878,1.625,1.116,0.481,0.844,0.805,��,9.5,��
2018/04/27,15:40,0.851,1.394,0.880,1.622,1.116,0.479,0.843,0.805,��,8.4,��
2018/04/27,15:50,0.853,1.395,0.878,1.623,1.117,0.477,0.844,0.805,��,7.9,��
2018/04/27,16:00,0.853,1.396,0.879,1.624,1.117,0.481,0.844,0.805,��,8.9,��
2018/04/27,16:10,0.854,1.394,0.880,1.624,1.118,0.481,0.844,0.805,��,8.1,��
2018/04/27,16:20,0.855,1.397,0.879,1.624,1.115,0.480,0.844,0.804,��,8.1,��
2018/04/27,16:30,0.854,1.397,0.879,1.623,1.122,0.481,0.844,0.805,��,8.4,��
2018/04/27,16:40,0.853,1.395,0.879,1.623,1.118,0.479,0.844,0.806,��,8.4,��
2018/04/27,16:50,0.853,1.395,0.880,1.625,1.117,0.479,0.843,0.806,��,7.4,��
2018/04/27,17:00,0.852,1.394,0.879,1.622,1.118,0.480,0.843,0.806,��,7.9,��
2018/04/27,17:10,0.852,1.394,0.879,1.624,1.119,0.482,0.842,0.806,��,7.8,��
2018/04/27,17:20,0.852,1.394,0.880,1.625,1.118,0.480,0.844,0.806,��,6.4,��
2018/04/27,17:30,0.851,1.396,0.878,1.622,1.119,0.478,0.842,0.805,��쐼,6.1,��
2018/04/27,17:40,0.851,1.395,0.879,1.624,1.117,0.480,0.843,0.805,��,5.4,��
2018/04/27,17:50,0.854,1.395,0.880,1.625,1.119,0.479,0.843,0.806,��,3.1,��
2018/04/27,18:00,0.852,1.396,0.881,1.626,1.117,0.481,0.842,0.805,��쐼,2.6,��
2018/04/27,18:10,0.852,1.396,0.882,1.624,1.120,0.480,0.843,0.807,��,3.3,��
2018/04/27,18:20,0.853,1.395,0.882,1.626,1.119,0.480,0.842,0.806,��쐼,3.4,��
2018/04/27,18:30,0.853,1.397,0.881,1.624,1.120,0.481,0.842,0.808,��쐼,2.3,��
2018/04/27,18:40,0.855,1.396,0.881,1.624,1.118,0.480,0.842,0.808,�쐼,2.0,��
2018/04/27,18:50,0.853,1.397,0.881,1.624,1.119,0.483,0.844,0.809,�쐼,1.5,��
2018/04/27,19:00,0.855,1.395,0.882,1.623,1.121,0.482,0.844,0.809,���k��,2.0,��
2018/04/27,19:10,0.855,1.397,0.880,1.623,1.122,0.483,0.844,0.808,�k�k��,2.9,��
2018/04/27,19:20,0.856,1.396,0.880,1.623,1.118,0.482,0.846,0.809,�k��,2.6,��
2018/04/27,19:30,0.855,1.395,0.882,1.621,1.121,0.482,0.845,0.806,�k��,3.5,��
2018/04/27,19:40,0.856,1.395,0.883,1.624,1.122,0.482,0.843,0.807,�k�k��,3.3,��
2018/04/27,19:50,0.856,1.394,0.882,1.625,1.121,0.481,0.844,0.808,�k�k��,2.6,��
2018/04/27,20:00,0.855,1.398,0.882,1.623,1.120,0.481,0.843,0.811,�k��,2.0,��
2018/04/27,20:10,0.855,1.395,0.882,1.623,1.121,0.482,0.844,0.809,�k��,2.6,��
2018/04/27,20:20,0.856,1.395,0.882,1.627,1.120,0.481,0.843,0.808,�k�k��,3.1,��
2018/04/27,20:30,0.855,1.396,0.881,1.626,1.122,0.481,0.844,0.808,�k�k��,3.3,��
2018/04/27,20:40,0.855,1.396,0.881,1.622,1.123,0.482,0.842,0.809,�k�k��,3.9,��
2018/04/27,20:50,0.854,1.395,0.882,1.624,1.119,0.481,0.846,0.808,�k�k��,3.8,��
2018/04/27,21:00,0.853,1.395,0.882,1.623,1.123,0.482,0.845,0.807,�k�k��,2.8,��
2018/04/27,21:10,0.856,1.394,0.882,1.620,1.123,0.480,0.846,0.807,�k��,2.6,��
2018/04/27,21:20,0.855,1.396,0.881,1.623,1.117,0.481,0.845,0.807,�k��,2.3,��
2018/04/27,21:30,0.856,1.397,0.882,1.625,1.122,0.481,0.845,0.807,�k��,2.9,��
2018/04/27,21:40,0.855,1.395,0.883,1.623,1.122,0.481,0.844,0.809,�k��,2.8,��
2018/04/27,21:50,0.854,1.394,0.880,1.624,1.120,0.482,0.844,0.807,�k��,2.3,��
2018/04/27,22:00,0.854,1.397,0.883,1.622,1.121,0.480,0.845,0.807,�k��,2.3,��
2018/04/27,22:10,0.856,1.394,0.881,1.624,1.122,0.481,0.845,0.809,���k��,2.0,��
2018/04/27,22:20,0.855,1.396,0.881,1.625,1.122,0.480,0.842,0.806,���쐼,2.6,��
2018/04/27,22:30,0.855,1.395,0.881,1.626,1.121,0.481,0.845,0.807,��,4.4,��
2018/04/27,22:40,0.854,1.395,0.882,1.624,1.121,0.480,0.843,0.807,���k��,4.1,��
2018/04/27,22:50,0.855,1.396,0.883,1.623,1.121,0.481,0.845,0.808,��,2.9,��
2018/04/27,23:00,0.855,1.395,0.880,1.623,1.120,0.481,0.844,0.809,��,1.7,��
2018/04/27,23:10,0.854,1.393,0.881,1.621,1.120,0.481,0.846,0.808,���k��,1.7,��
2018/04/27,23:20,0.856,1.392,0.882,1.627,1.121,0.481,0.845,0.809,�k��,3.0,��
2018/04/27,23:30,0.856,1.396,0.882,1.626,1.123,0.481,0.843,0.807,�k��,3.9,��
2018/04/27,23:40,0.854,1.396,0.878,1.623,1.121,0.480,0.844,0.807,���k��,3.7,��
2018/04/27,23:50,0.853,1.398,0.880,1.622,1.120,0.480,0.846,0.809,���k��,3.7,��
